EW2356 Weather Reports


time (UTC)temp
F
wind
direction
speed
knots
gust
knots
rain 1hr
in
rain 24hr
in
rain mn
in
humidity
%
barometer
mb
20260510190011 65 58 1.7 6.1 0.00 0.05 0.05 45 1019.1
20260510184507 66 90 1.7 7.8 0.00 0.05 0.05 43 1018.9
20260510183057 65 11 1.7 7.8 0.00 0.05 0.05 41 1018.8
20260510181547 64 30 1.7 6.1 0.00 0.05 0.05 42 1018.8
20260510180034 63 60 0.9 6.1 0.00 0.05 0.05 40 1018.7
20260510174529 63 91 1.7 6.1 0.00 0.05 0.05 41 1018.8
20260510173011 64 351 1.7 5.2 0.00 0.05 0.05 40 1018.9
20260510171515 64 19 2.6 7.0 0.00 0.05 0.05 39 1019.0
20260510170110 64 333 1.7 8.7 0.00 0.05 0.05 38 1018.9
20260510164608 64 37 4.3 8.7 0.00 0.05 0.05 37 1018.9
20260510163035 65 42 5.2 9.6 0.00 0.05 0.05 34 1018.9
20260510161532 64 27 4.3 9.6 0.00 0.05 0.05 36 1019.0
20260510160012 64 16 3.5 8.7 0.00 0.05 0.05 42 1019.1
20260510154509 64 64 2.6 7.0 0.00 0.05 0.05 42 1019.0
20260510153056 63 8 2.6 6.1 0.00 0.05 0.05 46 1019.0
20260510151555 64 329 2.6 9.6 0.00 0.05 0.05 45 1018.7
20260510150053 64 356 2.6 7.0 0.00 0.05 0.05 49 1018.5
20260510144603 63 326 0.9 5.2 0.00 0.05 0.05 52 1018.3
20260510143045 62 335 2.6 7.0 0.00 0.05 0.05 53 1018.2
20260510141540 61 329 1.7 7.0 0.00 0.05 0.05 57 1017.7
20260510140039 60 12 0.9 5.2 0.00 0.05 0.05 61 1017.3
20260510134540 60 340 0.9 5.2 0.00 0.05 0.05 66 1017.2
20260510133018 58 330 0.9 6.1 0.00 0.05 0.05 68 1017.5
20260510131515 58 336 0.9 4.3 0.00 0.05 0.05 70 1017.2
20260510130056 57 326 1.7 5.2 0.00 0.05 0.05 72 1017.2
20260510124609 56 336 0.9 4.3 0.00 0.05 0.05 77 1017.2
20260510123035 56 329 0.0 3.5 0.00 0.05 0.05 81 1017.0
20260510121531 55 340 0.0 1.7 0.00 0.05 0.05 83 1016.4
20260510120010 54 355 0.0 1.7 0.00 0.05 0.05 87 1016.3
20260510114507 55 327 0.0 1.7 0.00 0.05 0.05 87 1016.1
20260510113049 55 337 0.0 0.9 0.00 0.05 0.05 86 1015.8
20260510111545 55 335 0.0 3.5 0.00 0.05 0.05 86 1015.5
20260510110033 55 335 0.0 1.7 0.00 0.05 0.05 88 1015.1
20260510104521 56 338 0.0 4.3 0.00 0.05 0.05 90 1014.7
20260510103001 56 332 0.0 1.7 0.00 0.05 0.05 91 1014.4
20260510101501 56 332 0.0 1.7 0.00 0.05 0.05 94 1014.3
20260510100040 56 339 0.0 1.7 0.00 0.05 0.05 96 1014.0
20260510094548 56 338 0.0 0.9 0.00 0.05 0.05 95 1013.9
20260510093018 56 338 0.0 1.7 0.00 0.05 0.05 95 1013.4
20260510091522 57 339 0.0 1.7 0.00 0.05 0.05 95 1013.7
20260510090059 57 339 0.0 1.7 0.00 0.05 0.05 95 1013.5
20260510084601 57 266 0.0 0.0 0.00 0.05 0.05 95 1013.4
20260510083043 58 266 0.0 0.9 0.00 0.05 0.05 95 1013.1
20260510081540 58 266 0.0 0.9 0.00 0.05 0.05 95 1012.9
20260510080037 58 266 0.9 1.7 0.00 0.05 0.05 95 1012.8
20260510074534 58 267 0.0 0.0 0.00 0.05 0.05 94 1012.4
20260510073041 59 267 0.0 0.0 0.01 0.05 0.05 94 1012.2
20260510071530 59 267 0.0 1.7 0.01 0.05 0.05 94 1012.4
20260510070131 59 260 0.9 3.5 0.02 0.05 0.05 93 1012.3
20260510064529 60 264 0.0 5.2 0.03 0.05 0.05 93 1012.2
20260510063010 60 35 0.9 4.3 0.03 0.04 0.04 93 1012.0
20260510061508 60 303 0.0 1.7 0.04 0.04 0.04 93 1012.1
20260510060049 60 322 0.0 1.7 0.03 0.03 0.03 93 1011.7
20260510054549 60 260 0.0 0.9 0.02 0.02 0.02 92 1011.4
20260510053048 60 260 0.0 0.9 0.01 0.01 0.01 91 1011.8
20260510051526 60 230 0.0 1.7 0.00 0.00 0.00 90 1010.7
20260510050005 61 326 0.0 0.0 0.00 0.00 0.00 89 1010.8
20260510044504 62 83 0.0 1.7 0.00 0.00 0.00 87 1010.9
20260510043058 62 338 0.0 0.9 0.00 0.00 0.00 85 1011.4
20260510041546 63 333 0.0 1.7 0.00 0.00 0.00 83 1011.3
20260510040036 64 316 0.0 3.5 0.00 0.00 0.00 81 1011.1
20260510034526 65 66 0.0 8.7 0.00 0.02 0.00 77 1010.7
20260510033007 66 342 1.7 8.7 0.00 0.02 0.00 74 1010.7
20260510031509 67 338 2.6 11.3 0.00 0.02 0.00 71 1010.6
20260510030048 64 314 6.1 15.6 0.00 0.02 0.00 75 1010.2
20260510024549 62 270 0.0 0.0 0.00 0.27 0.00 79 1008.7
20260510023027 63 270 0.0 0.0 0.00 0.27 0.00 77 1008.5
20260510021537 63 270 0.0 0.0 0.00 0.27 0.00 74 1008.2
20260510020009 64 270 0.0 0.9 0.00 0.27 0.00 70 1008.1
20260510014508 65 270 0.0 0.0 0.00 0.34 0.00 70 1007.8
20260510013107 66 270 0.0 0.0 0.00 0.34 0.00 65 1007.6
20260510011552 69 270 0.0 0.0 0.00 0.34 0.00 58 1007.6
20260510010049 72 270 0.0 0.0 0.00 0.34 0.00 52 1007.5
20260510004533 75 270 0.0 1.7 0.00 0.40 0.00 44 1007.3
20260510003030 76 271 0.9 3.5 0.00 0.40 0.00 41 1007.2
20260510001512 77 276 0.0 1.7 0.00 0.40 0.00 39 1007.1
20260510000011 77 264 0.0 4.3 0.00 0.40 0.00 39 1007.1
20260509234553 78 275 0.9 3.5 0.00 0.41 0.00 38 1007.1
20260509233055 79 263 0.0 7.0 0.00 0.41 0.00 40 1007.0
20260509231536 79 268 0.0 1.7 0.00 0.41 0.00 37 1007.0
20260509230035 80 300 0.0 4.3 0.00 0.41 0.00 35 1007.0
20260509224513 81 302 0.9 7.0 0.00 0.41 0.00 32 1006.9
20260509223012 81 71 3.5 10.4 0.00 0.41 0.00 33 1006.9
20260509221554 82 279 0.0 7.0 0.00 0.41 0.00 34 1007.0
20260509220052 81 253 2.6 11.3 0.00 0.41 0.00 35 1007.0
20260509214539 81 254 4.3 8.7 0.00 0.41 0.00 36 1007.0
20260509213034 80 308 2.6 12.2 0.00 0.41 0.00 37 1007.0
20260509211511 81 249 0.9 7.8 0.00 0.41 0.00 35 1007.1
20260509210010 81 283 0.0 7.8 0.00 0.41 0.00 41 1007.3
20260509204551 80 261 1.7 8.7 0.00 0.41 0.00 39 1007.5
20260509203100 81 248 3.5 7.8 0.00 0.41 0.00 37 1007.6
20260509201532 80 289 4.3 9.6 0.00 0.41 0.00 40 1007.7
20260509200029 81 273 0.0 8.7 0.00 0.41 0.00 44 1007.8
20260509194509 80 337 0.9 7.8 0.00 0.41 0.00 39 1007.9
20260509193016 79 317 2.6 8.7 0.00 0.41 0.00 42 1007.9
20260509191600 80 283 3.5 13.9 0.00 0.41 0.00 43 1008.0